Weather home | Your neighborhood | Marine | Radar | Hurricane | Almanac

Daily weather history


Statistical History for Wednesday, September 13, 2017

Tampa Knight Airport, FL


  Actual Average (KTPA) Record (KTPA)
Temperature
Mean Temperature -  
Max Temperature 87 °F 95 °F (1990)
Min Temperature 73 °F 66 °F (1956)
Cooling Degree Days    
Growing Degree Days 31 (Base - )  
Moisture
Dew Point   
Average Humidity    
Maximum Humidity    
Minimum Humidity    
Precipitation
Precipitation - - ()
Wind
Wind Speed   
Max Wind Speed   
Max Gust Speed   
Visibility   
Events   
Averages and records for this station are not official NWS values.
Key: T is trace of precipitation, MM is missing value
Source: NWS Daily Summary
Seasonal Weather Averages
Time(EDT)TemperatureDew PointHumidity Sea Level Pressure Visibility Wind DirectionWind SpeedGust SpeedPrecipitationEventsConditions
12:15 AM 77.0 °F 75.2 °F 94% 29.91 in 10.0 miles Calm Calm - N/A   Clear
12:35 AM 75.2 °F 75.2 °F 100% 29.92 in 10.0 miles Calm Calm - N/A   Clear
12:55 AM 77.0 °F 77.0 °F 100% 29.92 in 10.0 miles Calm Calm - N/A   Clear
1:15 AM 75.2 °F 75.2 °F 100% 29.92 in 10.0 miles Calm Calm - N/A   Clear
1:35 AM - - N/A% 29.91 in 10.0 miles Calm Calm - N/A   Clear
1:55 AM - - N/A% 29.91 in 10.0 miles Calm Calm - N/A   Clear
2:15 AM 75.2 °F 75.2 °F 100% 29.91 in 10.0 miles Calm Calm - N/A   Clear
2:35 AM - - N/A% 29.91 in 10.0 miles Calm Calm - N/A   Clear
2:55 AM - - N/A% 29.91 in 10.0 miles Calm Calm - N/A   Clear
3:15 AM - - N/A% 29.91 in 10.0 miles Calm Calm - N/A   Clear
3:35 AM - - N/A% 29.91 in 10.0 miles Calm Calm - N/A   Clear
3:55 AM - - N/A% 29.91 in 10.0 miles Calm Calm - N/A   Clear
4:15 AM - - N/A% 29.91 in 10.0 miles Calm Calm - N/A   Clear
4:35 AM - - N/A% 29.91 in 10.0 miles Calm Calm - N/A   Clear
4:55 AM 73.4 °F 73.4 °F 100% 29.91 in 10.0 miles Calm Calm - N/A   Clear
5:15 AM 73.4 °F 73.4 °F 100% 29.91 in 10.0 miles Calm Calm - N/A   Clear
5:35 AM - - N/A% 29.92 in 10.0 miles Calm Calm - N/A   Clear
5:55 AM - - N/A% 29.92 in 10.0 miles Calm Calm - N/A   Clear
6:15 AM - - N/A% 29.93 in 10.0 miles Calm Calm - N/A   Clear
6:35 AM - - N/A% 29.93 in 10.0 miles Calm Calm - N/A   Clear
6:55 AM - - N/A% 29.94 in 10.0 miles Calm Calm - N/A   Clear
7:15 AM - - N/A% 29.95 in 10.0 miles Calm Calm - N/A   Clear
7:35 AM - - N/A% 29.95 in 10.0 miles Calm Calm - N/A   Clear
7:55 AM - - N/A% 29.96 in 10.0 miles Calm Calm - N/A   Clear
8:15 AM 77.0 °F 77.0 °F 100% 29.96 in 10.0 miles Calm Calm - N/A   Clear
8:35 AM 78.8 °F 73.4 °F 83% 29.96 in 10.0 miles Calm Calm - N/A   Clear
8:55 AM 78.8 °F 73.4 °F 83% 29.97 in 10.0 miles SE 4.6 mph - N/A   Clear
9:15 AM 80.6 °F 73.4 °F 79% 29.97 in 10.0 miles SE 5.8 mph - N/A   Clear
9:35 AM 80.6 °F 73.4 °F 79% 29.97 in 10.0 miles SE 4.6 mph - N/A   Clear
9:55 AM 82.4 °F 73.4 °F 74% 29.97 in 10.0 miles SSE 4.6 mph - N/A   Clear
10:15 AM 82.4 °F 73.4 °F 74% 29.98 in 10.0 miles SSE 4.6 mph - N/A   Clear
10:35 AM 84.2 °F 75.2 °F 74% 29.98 in 10.0 miles SSE 3.5 mph - N/A   Clear
10:55 AM 84.2 °F 73.4 °F 70% 29.98 in 10.0 miles SSE 3.5 mph - N/A   Clear
11:15 AM 84.2 °F 73.4 °F 70% 29.98 in 10.0 miles South 3.5 mph - N/A   Clear
11:35 AM 86.0 °F 73.4 °F 66% 29.98 in 10.0 miles South 3.5 mph - N/A   Clear
11:55 AM 86.0 °F 73.4 °F 66% 29.98 in 10.0 miles SSW 3.5 mph - N/A   Clear
12:15 PM 86.0 °F 73.4 °F 66% 29.98 in 10.0 miles SW 3.5 mph - N/A   Scattered Clouds
12:35 PM 86.0 °F 75.2 °F 70% 29.97 in 10.0 miles SSW 4.6 mph - N/A   Mostly Cloudy
12:55 PM 86.0 °F 73.4 °F 66% 29.97 in 10.0 miles SSW 4.6 mph - N/A   Mostly Cloudy
1:15 PM 87.8 °F 73.4 °F 62% 29.97 in 10.0 miles SW 3.5 mph - N/A   Scattered Clouds
1:35 PM 87.8 °F 73.4 °F 62% 29.96 in 10.0 miles Calm Calm - N/A   Clear
1:55 PM 87.8 °F 73.4 °F 62% 29.96 in 10.0 miles SSW 4.6 mph - N/A   Clear
2:15 PM 89.6 °F 73.4 °F 59% 29.95 in 10.0 miles SW 4.6 mph - N/A   Clear
2:35 PM 89.6 °F 73.4 °F 59% 29.94 in 10.0 miles SW 3.5 mph - N/A   Clear
2:55 PM 89.6 °F 71.6 °F 55% 29.93 in 10.0 miles SW 4.6 mph - N/A   Clear
3:15 PM 89.6 °F 71.6 °F 55% 29.93 in 10.0 miles SSW 3.5 mph - N/A   Clear
3:35 PM 89.6 °F 71.6 °F 55% 29.93 in 10.0 miles SW 5.8 mph - N/A   Clear
3:55 PM 89.6 °F 71.6 °F 55% 29.92 in 10.0 miles SW 4.6 mph - N/A   Clear
4:15 PM 89.6 °F 71.6 °F 55% 29.91 in 10.0 miles SSW 4.6 mph - N/A   Clear
4:35 PM 87.8 °F 73.4 °F 62% 29.91 in 10.0 miles SSW 9.2 mph - N/A   Clear
4:55 PM 89.6 °F 73.4 °F 59% 29.91 in 10.0 miles SW 6.9 mph - N/A   Clear
5:15 PM 89.6 °F 73.4 °F 59% 29.91 in 10.0 miles SW 8.1 mph - N/A   Clear
5:35 PM 89.6 °F 73.4 °F 59% 29.91 in 10.0 miles SSW 8.1 mph - N/A   Clear
6:15 PM 87.8 °F 69.8 °F 55% 29.92 in 10.0 miles SW 5.8 mph - N/A   Clear
6:35 PM 86.0 °F 71.6 °F 62% 29.92 in 10.0 miles SW 5.8 mph - N/A   Clear
6:55 PM 86.0 °F 71.6 °F 62% 29.91 in 10.0 miles SW 3.5 mph - N/A   Clear
7:15 PM 84.2 °F 71.6 °F 66% 29.91 in 10.0 miles Calm Calm - N/A   Scattered Clouds
7:35 PM 84.2 °F 71.6 °F 66% 29.92 in 10.0 miles WSW 3.5 mph - N/A   Scattered Clouds
7:55 PM 84.2 °F 71.6 °F 66% 29.92 in 10.0 miles WSW 3.5 mph - N/A   Scattered Clouds
8:15 PM 82.4 °F 73.4 °F 74% 29.92 in 10.0 miles Calm Calm - N/A   Mostly Cloudy
8:35 PM 82.4 °F 73.4 °F 74% 29.93 in 10.0 miles WSW 3.5 mph - N/A   Mostly Cloudy
8:55 PM 82.4 °F 73.4 °F 74% 29.93 in 10.0 miles Calm Calm - N/A   Mostly Cloudy
9:15 PM 82.4 °F 73.4 °F 74% 29.94 in 10.0 miles Calm Calm - N/A   Mostly Cloudy
9:35 PM 80.6 °F 75.2 °F 84% 29.94 in 10.0 miles Calm Calm - N/A   Mostly Cloudy
9:55 PM 80.6 °F 75.2 °F 84% 29.94 in 10.0 miles Calm Calm - N/A   Overcast
10:15 PM 80.6 °F 77.0 °F 89% 29.95 in 10.0 miles Calm Calm - N/A   Mostly Cloudy
10:35 PM 80.6 °F 77.0 °F 89% 29.95 in 10.0 miles Calm Calm - N/A   Mostly Cloudy
10:55 PM 80.6 °F 77.0 °F 89% 29.95 in 10.0 miles SW 3.5 mph - N/A   Mostly Cloudy
11:15 PM 80.6 °F 77.0 °F 89% 29.96 in 10.0 miles WSW 3.5 mph - N/A   Mostly Cloudy
11:35 PM 80.6 °F 78.8 °F 94% 29.96 in 10.0 miles Calm Calm - N/A   Mostly Cloudy
11:55 PM 80.6 °F 78.8 °F 94% 29.96 in 10.0 miles Calm Calm - N/A   Mostly Cloudy
ADVERTISEMENT
Enter city or zip code to search weather conditions:


  • 490 First Avenue South
  • St. Petersburg, FL 33701
  • 727-893-8111